Location: Unspecified
(51.6250°N, 0.8230°E)
Time: 14:55:05
(UTC+00:00)

Cosmos 1674 - Visible Passes

Search period start: 18 December 2017 00:00
Search period end: 28 December 2017 00:00
Orbit: 498 x 521 km, 82.5° (Epoch: 17 December)

Date Brightness Start Highest point End Pass type
(mag) Time Alt. Az. Time Alt. Az. Time Alt. Az.
19 Dec 5.4 07:09:21 10° NNE 07:11:43 16° ENE 07:14:05 10° ESE visible
20 Dec 5.5 06:52:50 10° NNE 06:54:41 13° ENE 06:56:31 10° E visible
21 Dec 5.7 06:36:37 10° NE 06:37:37 11° ENE 06:38:36 10° ENE visible
24 Dec 3.8 07:19:20 10° N 07:23:00 45° ENE 07:26:37 10° SSE visible
25 Dec 4.2 07:02:28 10° N 07:06:01 36° ENE 07:09:31 10° SE visible
26 Dec 4.5 06:45:39 10° N 06:49:01 30° ENE 06:52:21 10° SE visible
27 Dec 4.9 06:28:51 10° NNE 06:32:00 24° ENE 06:35:08 10° SE visible
